Location: Madden
(51.3728°N, 114.3297°W)
Time: 05:25:01
(UTC+00:00)

PCSat - Pass Details

Date: 12 December 2023
Orbit: 784 x 791 km, 67.0° (Epoch: 02 March)

Event Time Altitude Azimuth Distance (km) Brightness Sun altitude
Exits shadow 13:57:44 14° 326° (NW) 2,123 11.3 -13.8°
Maximum altitude 13:59:43 16° 351° (N) 1,974 11.3 -13.6°
Drops below altitude 10° 14:03:00 10° 28° (NNE) 2,365 12.1 -13.1°
Sets 14:06:26 0° 50° (NE) 3,296 13.2 -12.6°
